This is the latest recevied weather packets stored in our database for station/object KB0Y. If no packets are shown the sender has not sent any weather packets the latest 10 day(s).
| Time | Temp. | Humidity | Pressure | Rain* | Wind** | Luminosity | Snow |
|---|---|---|---|---|---|---|---|
| 1777248830 | 26.67° C | 67% | 1015.2 hPa | 0 mm | - | 0 W/m² | - |
| 1777248528 | 26.67° C | 67% | 1014.9 hPa | 0 mm | - | 0 W/m² | - |
| 1777248225 | 26.67° C | 66% | 1015.2 hPa | 0 mm | - | 2 W/m² | - |
| 1777247924 | 27.22° C | 65% | 1014.9 hPa | 0 mm | - | 5 W/m² | - |
| 1777247619 | 27.22° C | 63% | 1014.9 hPa | 0 mm | - | 12 W/m² | - |
| 1777247318 | 27.78° C | 63% | 1014.9 hPa | 0 mm | - | 19 W/m² | - |
| 1777247015 | 27.78° C | 61% | 1014.9 hPa | 0 mm | - | 24 W/m² | - |
| 1777246712 | 27.78° C | 60% | 1014.9 hPa | 0 mm | - | 27 W/m² | - |
| 1777246408 | 28.33° C | 59% | 1014.9 hPa | 0 mm | - | 33 W/m² | - |
| 1777246105 | 28.33° C | 59% | 1014.9 hPa | 0 mm | - | 43 W/m² | - |
| 1777245803 | 28.33° C | 58% | 1014.9 hPa | 0 mm | - | 52 W/m² | - |
| 1777245501 | 28.33° C | 58% | 1014.9 hPa | 0 mm | - | 61 W/m² | - |
| 1777245196 | 28.33° C | 57% | 1014.9 hPa | 0 mm | - | 98 W/m² | - |
| 1777244892 | 28.33° C | 57% | 1014.5 hPa | 0 mm | - | 90 W/m² | - |
| 1777244588 | 28.33° C | 57% | 1014.5 hPa | 0 mm | - | 253 W/m² | - |
| 1777244284 | 28.33° C | 57% | 1014.9 hPa | 0 mm | - | 97 W/m² | - |
| 1777243982 | 28.33° C | 56% | 1014.5 hPa | 0 mm | - | 205 W/m² | - |
| 1777243679 | 28.33° C | 57% | 1014.5 hPa | 0 mm | - | 178 W/m² | - |
| 1777243376 | 28.33° C | 57% | 1014.5 hPa | 0 mm | - | 98 W/m² | - |
| 1777243071 | 28.33° C | 57% | 1014.5 hPa | 0 mm | - | 82 W/m² | - |
| 1777242768 | 28.89° C | 57% | 1014.5 hPa | 0 mm | - | 78 W/m² | - |
| 1777242465 | 28.89° C | 57% | 1014.2 hPa | 0 mm | - | 80 W/m² | - |
| 1777242161 | 28.89° C | 57% | 1014.2 hPa | 0 mm | - | 86 W/m² | - |
| 1777241858 | 28.89° C | 57% | 1014.2 hPa | 0 mm | - | 91 W/m² | - |
| 1777241556 | 29.44° C | 57% | 1014.5 hPa | 0 mm | - | 97 W/m² | - |
* Rain latest hour (hover to see other rain measurements)
** Current wind speed in m/s (hover to see current wind gust speed)